Flag for Brazil Weather past 2 weeks in Porto Velho, Rondônia, Brazil

Now
84 °F

Scattered clouds.


Feels Like: 91 °F
Forecast: 72 / 89 °F
Wind: 3 mph from North

Location: Porto Velho Aeroporto

Current Time: Apr 18, 2015 at 11:43:40 AM

Latest Report: Apr 18, 2015 at 11:00 AM


Visibility: N/A

Pressure: 29.95 "Hg

Humidity: 70%

Dew point: 73 °F

Location of Porto VelhoLocation

Historic Weather in Porto Velho — Graph

°F

Porto Velho temperature yesterday

Maximum temperature yesterday: 88 °F (at 3:00 PM)
Minimum temperature yesterday: 72 °F (at 3:00 AM)
Average temperature yesterday: 76 °F

Past Weeks' High & Low Weather Summary

 TemperatureHumidityPressure
High91 °F (Apr 12, 4:00 PM)100% (Apr 4, 12:00 PM)30.01 "Hg (Apr 4, 12:00 PM)
Low46 °F (Apr 4, 12:00 PM)22% (Apr 13, 12:00 AM)29.50 "Hg (Apr 14, 6:00 PM)
Average78 °F83%29.85 "Hg
* Reported Apr 3 10:00 AM — Apr 18 10:00 AM, Porto Velho, Weather by CustomWeather, © 2015

Note: Actual official high and low records may vary slightly from our data, if they occured in-between our weather recording intervals... More about our weather records

Advertising

Porto Velho weather history for previous 24 hours

 ConditionsComfort  
Time TempWeatherWind HumidityBarometerVisibility
10:00 AM
Sat, Apr 18
81 °FPartly sunny.6 mph79%29.95 "HgN/A
9:00 AM79 °FPartly sunny.2 mph89%29.95 "HgN/A
8:00 AM77 °FPartly sunny.2 mph89%29.92 "HgN/A
7:00 AM73 °FFog.2 mph100%29.89 "Hg3 mi
6:00 AM73 °FPartly cloudy.No wind94%29.86 "HgN/A
5:00 AM75 °FPassing clouds.2 mph89%29.83 "HgN/A
4:00 AM75 °FPassing clouds.2 mph94%29.83 "HgN/A
3:00 AM75 °FPassing clouds.2 mph94%29.83 "HgN/A
2:00 AM75 °FPassing clouds.2 mph94%29.83 "HgN/A
1:00 AM75 °FPassing clouds.No wind94%29.86 "HgN/A
12:00 AM75 °FPassing clouds.No wind94%29.86 "HgN/A
11:00 PM
Fri, Apr 17
75 °FPassing clouds.No wind94%29.86 "HgN/A
10:00 PM73 °FPassing clouds.No wind94%29.86 "HgN/A
9:00 PM75 °FPassing clouds.No wind94%29.86 "HgN/A
8:00 PM75 °FPassing clouds.No wind94%29.83 "HgN/A
7:00 PM75 °FPassing clouds.2 mph94%29.80 "HgN/A
6:00 PM79 °FScattered clouds.2 mph79%29.77 "HgN/A
5:00 PM81 °FScattered clouds.2 mph74%29.77 "HgN/A
4:00 PM81 °FScattered clouds.8 mph70%29.77 "HgN/A
3:00 PM88 °FPartly sunny.6 mph59%29.83 "HgN/A
2:00 PM86 °FPartly sunny.No wind59%29.86 "HgN/A
1:00 PM84 °FPartly sunny.3 mph62%29.89 "HgN/A
12:00 PM82 °FScattered clouds.6 mph70%29.92 "HgN/A
11:00 AM79 °FPartly sunny.5 mph79%29.95 "HgN/A
Weather by CustomWeather, © 2015

See weather overviewHow to use our weather pages